Flag for Mexico Weather past 2 weeks in Querétaro, Querétaro, Mexico

Now
73 °F

Scattered clouds.


Feels Like: 76 °F
Forecast: 43 / 78 °F
Wind: 12 mph from East

Location: Queretaro - Qro.

Current Time: Jan 28, 2015 at 2:40:42 PM

Latest Report: Jan 28, 2015 at 1:45 PM


Visibility: 7 mi

Pressure: 30.30 "Hg

Humidity: 25%

Dew point: 36 °F

Location of QuerétaroLocation

Historic Weather in Querétaro — Graph

°F

Querétaro temperature yesterday

Maximum temperature yesterday: 75 °F (at 1:50 PM)
Minimum temperature yesterday: 39 °F (at 5:45 AM)
Average temperature yesterday: 57 °F

Past Weeks' High & Low Weather Summary

 TemperatureHumidityPressure
High79 °F (Jan 21, 2:45 PM)100% (Jan 22, 2:45 AM)30.51 "Hg (Jan 22, 2:45 AM)
Low37 °F (Jan 15, 5:45 AM)14% (Jan 14, 4:45 PM)30.09 "Hg (Jan 21, 6:45 PM)
Average57 °F55%30.32 "Hg
* Reported Jan 13 11:45 AM — Jan 28 11:45 AM, Querétaro, Weather by CustomWeather, © 2014

Note: Actual official high and low records may vary slightly from our data, if they occured in-between our weather recording intervals... More about our weather records

Advertising

Querétaro weather history for previous 24 hours

 ConditionsComfort  
Time TempWeatherWind HumidityBarometerVisibility
11:45 AM
Jan 28
68 °FPassing clouds.17 mph33%30.35 "Hg14 mi
10:45 AM64 °FPassing clouds.13 mph37%30.39 "Hg14 mi
9:45 AM61 °FScattered clouds.3 mph42%30.41 "Hg14 mi
8:45 AM52 °FPartly sunny.No wind50%30.41 "Hg14 mi
7:45 AM39 °FScattered clouds.3 mph75%30.40 "Hg14 mi
6:45 AM43 °FPassing clouds.No wind66%30.38 "Hg10 mi
5:45 AM39 °FClear.5 mph75%30.35 "Hg10 mi
4:45 AM41 °FClear.6 mph70%30.36 "Hg10 mi
3:45 AM45 °FClear.No wind61%30.37 "Hg10 mi
2:45 AM48 °FClear.No wind54%30.37 "Hg10 mi
1:45 AM48 °FClear.6 mph54%30.39 "Hg10 mi
12:45 AM50 °FClear.7 mph50%30.40 "Hg10 mi
11:45 PM
Jan 27
52 °FClear.7 mph47%30.40 "Hg10 mi
10:45 PM52 °FClear.8 mph50%30.41 "Hg10 mi
9:45 PM54 °FClear.8 mph47%30.41 "Hg10 mi
8:45 PM59 °FClear.6 mph39%30.32 "Hg7 mi
7:45 PM63 °FClear.17 mph34%30.32 "Hg7 mi
6:45 PM66 °FClear.16 mph30%30.31 "Hg7 mi
5:45 PM72 °FSunny.17 mph25%30.30 "Hg7 mi
4:45 PM75 °FScattered clouds.15 mph22%30.28 "Hg7 mi
3:45 PM75 °FScattered clouds.14 mph22%30.29 "Hg7 mi
2:45 PM75 °FScattered clouds.9 mph22%30.29 "Hg7 mi
Weather by CustomWeather, © 2014

See weather overviewHow to use our weather pages